RH
9 9 10 10 11 12 13 14 16 17 18 18 18 18 18 17 16 15 15 14 15 16 16 15 14 14 13 11 10 8 6 5 4 3 3 3 4 4 5 5 4 5 5 8 10 13 16 18 18 17 18 18 16 25 39 54 63 57 54 57 49 41 40 38 37 36 40 46 47 47 46 44 43 41 48 53 54 56 55 55 57 60 62 59 54 47 43 44
12 10 9 9 10 10 10 11 12 13 15 16 17 18 18 18 18 17 16 15 15 16 17 17 16 15 13 12 12 10 9 7 5 4 3 3 4 4 5 4 3 4 5 8 10 13 16 17 18 17 19 17 19 32 42 52 57 51 51 48 41 38 37 36 35 34 37 45 46 43 41 39 39 36 36 43 47 47 49 53 55 56 58 57 54 49 43 41
19 16 12 10 9 9 9 9 10 10 11 13 14 16 17 18 18 18 17 17 16 15 16 18 18 16 14 13 11 11 10 9 7 5 3 3 3 4 4 4 3 3 5 8 10 14 16 15 15 15 17 15 22 36 45 55 53 51 53 43 36 37 36 34 32 34 37 42 46 43 41 43 41 36 33 39 42 40 41 46 50 52 52 52 52 49 43 39
24 22 19 15 12 9 8 8 9 9 9 10 11 12 14 15 17 17 17 17 16 16 16 17 18 18 16 14 12 11 10 9 8 8 9 7 4 4 4 3 3 3 4 8 12 16 15 13 12 13 14 13 26 40 45 52 51 51 50 37 37 39 36 35 32 35 39 40 42 41 40 42 41 35 31 31 31 34 38 40 43 49 49 46 47 48 43 40
25 24 23 21 18 15 11 9 8 8 8 8 9 9 10 12 13 15 16 17 17 16 16 16 18 18 17 16 14 13 11 11 12 16 19 14 8 6 5 3 3 3 4 8 13 16 14 12 11 11 12 12 27 40 39 46 51 48 41 35 41 41 36 37 36 36 41 41 39 39 37 36 38 34 30 26 26 31 38 39 37 42 47 45 43 45 44 42
27 25 25 24 22 21 18 14 11 9 8 8 8 8 9 10 10 12 13 15 16 16 15 16 17 17 16 16 15 15 13 11 13 20 23 18 10 6 4 4 4 4 6 9 12 15 12 11 11 12 14 13 22 29 33 46 53 47 38 37 41 41 36 35 39 40 44 43 37 35 34 34 35 31 29 28 27 30 36 42 36 33 42 46 44 44 44 43
28 27 26 25 24 23 22 20 17 14 11 8 8 8 8 8 9 9 10 12 13 14 15 15 16 16 16 14 14 15 13 11 13 16 20 18 12 8 6 5 6 7 7 9 11 12 10 11 13 14 15 15 18 21 30 46 53 47 39 37 39 40 37 33 37 40 44 46 39 35 34 34 33 29 29 27 27 30 36 43 38 30 34 41 44 44 45 43
28 28 28 27 26 25 23 22 21 19 16 13 10 8 7 7 8 8 8 9 10 12 13 14 15 15 16 14 12 13 11 13 14 11 12 12 11 13 10 6 7 9 10 10 9 10 9 11 13 15 15 16 19 19 29 46 51 46 37 37 41 40 37 35 36 37 42 46 43 38 34 32 31 28 28 26 27 31 35 40 40 33 32 37 40 43 47 44
28 27 27 28 27 27 26 25 23 22 21 18 15 11 8 7 7 7 7 8 8 10 11 12 13 14 15 13 12 10 10 13 13 11 11 8 7 12 14 10 8 9 11 12 10 10 9 10 12 15 16 17 19 19 29 47 50 44 38 39 42 39 37 36 35 35 38 42 44 41 34 32 30 28 28 27 30 33 34 38 40 38 36 38 38 40 46 44
28 27 27 27 27 27 27 26 25 24 23 22 20 17 13 9 7 7 6 7 8 8 9 10 11 12 13 13 11 8 10 14 12 13 15 14 12 12 15 15 11 8 10 13 13 10 9 10 11 13 15 16 19 22 30 44 47 44 44 44 41 38 37 34 32 32 34 38 42 40 34 32 30 28 28 27 30 33 34 36 38 39 41 42 38 37 43 46
28 28 27 26 26 26 26 26 25 25 24 24 23 22 18 14 10 8 7 7 7 7 8 8 8 9 11 11 9 7 11 14 15 19 20 19 20 18 18 18 15 11 8 11 12 10 10 9 10 13 17 18 21 23 30 41 45 46 47 47 42 40 38 35 32 30 30 34 39 39 33 31 29 29 28 25 26 28 31 32 34 37 41 44 40 36 39 44
29 28 28 27 26 26 25 25 24 24 24 25 25 24 22 18 14 12 9 7 6 7 7 7 7 8 9 8 6 10 15 14 16 24 23 18 19 22 23 21 17 13 9 9 9 10 9 8 12 17 19 22 25 29 33 42 48 49 49 47 41 37 35 33 32 29 28 31 37 38 33 31 30 29 28 26 25 25 28 30 32 33 38 43 40 34 35 40
29 29 29 28 27 27 25 25 24 23 24 25 25 25 23 20 18 16 13 9 7 6 6 6 7 6 7 5 5 12 16 14 15 20 20 16 17 19 19 19 17 14 11 8 8 9 8 9 14 17 22 28 31 34 37 41 47 48 47 44 37 32 30 30 30 28 27 31 36 35 31 30 29 28 28 26 25 24 26 30 32 32 34 38 34 29 32 35
29 29 29 29 28 27 26 25 24 24 24 24 25 24 23 21 21 20 17 14 10 8 7 6 6 6 6 5 6 11 14 14 11 12 14 13 16 18 16 15 14 12 10 8 8 8 8 9 11 16 26 33 33 36 39 41 42 42 41 38 32 29 29 30 29 27 24 26 34 35 30 29 29 29 27 25 25 25 24 26 31 33 31 32 29 26 29 31
30 29 29 29 28 28 27 26 25 25 25 25 25 24 23 22 22 22 20 18 15 11 9 7 6 6 5 5 6 9 11 11 8 9 12 10 13 17 14 11 10 9 8 7 8 8 8 8 10 13 19 30 41 44 44 43 41 39 37 34 31 30 29 29 29 27 22 21 30 35 30 30 31 28 26 25 25 25 24 23 27 32 31 30 29 25 26 29
30 30 30 29 29 29 28 27 26 26 27 25 24 24 23 23 23 23 22 21 18 15 12 9 7 7 6 5 5 7 9 9 9 10 12 10 11 13 13 11 9 10 8 7 8 8 9 8 9 10 15 33 50 52 51 50 44 39 37 34 32 31 30 29 26 23 20 19 27 35 32 31 31 27 26 26 26 26 25 23 25 30 31 30 29 25 22 26
29 29 30 29 29 30 29 28 26 27 29 27 25 24 23 23 24 23 22 22 21 18 15 12 10 8 7 6 6 7 8 8 10 11 10 9 9 12 15 13 10 11 11 11 11 11 13 11 8 9 18 39 54 56 57 51 44 39 36 34 31 30 30 28 24 19 18 19 26 34 35 33 31 28 27 26 27 27 25 25 26 29 31 30 30 27 22 21
30 30 30 29 29 29 29 29 27 28 30 29 26 25 25 24 25 24 23 22 21 20 19 16 14 10 9 9 7 7 8 8 8 9 9 7 8 12 15 13 12 14 16 19 17 16 19 17 12 10 20 42 56 59 56 45 40 38 33 32 30 29 29 28 24 19 17 21 28 33 34 32 30 29 28 28 29 28 26 27 28 29 30 29 31 30 24 20
31 30 30 30 29 29 29 28 28 28 30 30 28 27 26 25 25 25 24 23 21 21 20 18 16 12 11 12 9 8 8 8 8 8 8 6 6 10 13 14 15 17 18 21 20 17 22 24 20 15 21 41 56 59 55 46 39 35 31 30 28 27 28 27 24 20 18 21 29 34 33 31 30 29 29 29 29 29 28 29 30 31 30 29 32 31 26 19
29 29 29 29 29 29 28 28 28 28 29 29 29 29 28 27 27 25 23 22 22 21 20 19 18 15 13 12 10 10 9 8 7 8 9 8 6 8 13 15 17 20 19 19 19 18 22 26 23 17 20 40 55 57 54 48 41 36 32 29 26 25 25 25 24 21 18 19 26 31 32 31 30 30 30 30 30 29 29 31 32 32 30 29 31 32 28 19
22 24 26 27 28 28 28 27 27 28 29 29 30 31 31 30 29 26 23 21 22 22 21 19 18 16 14 13 10 11 14 11 8 9 10 9 8 8 11 15 18 20 18 17 20 20 21 23 19 14 19 37 52 55 51 45 41 37 33 30 27 25 24 23 23 21 19 19 22 28 32 32 31 30 30 30 30 29 28 30 30 30 30 29 31 33 29 20
11 15 18 21 23 25 26 26 26 28 29 30 30 32 34 33 31 29 24 20 19 21 22 20 19 15 14 15 12 12 18 15 10 12 13 11 9 8 10 13 15 15 15 20 25 26 23 19 15 13 18 32 47 51 47 42 38 35 32 29 26 25 24 22 21 20 18 18 20 25 30 30 30 30 30 30 29 28 27 28 28 29 29 30 31 33 30 21
5 6 8 11 15 18 21 23 24 26 29 30 31 35 37 35 34 33 29 23 17 17 20 19 19 17 14 15 13 13 14 12 12 14 15 13 10 9 10 12 14 15 17 20 24 26 22 15 13 13 16 26 40 46 44 39 35 33 30 27 26 24 23 22 20 20 17 17 18 19 25 30 32 33 31 31 29 27 28 29 29 29 30 31 32 33 31 25
3 3 4 5 7 9 13 17 21 25 28 31 34 38 38 38 38 35 32 28 20 15 17 18 18 17 15 16 15 13 10 9 13 15 15 14 11 10 11 11 14 17 18 17 18 19 17 13 11 12 13 18 28 36 40 37 33 32 30 27 26 24 23 22 21 20 17 17 17 16 26 35 36 35 34 31 31 29 29 30 31 31 31 33 33 33 33 29
3 3 3 3 4 4 6 10 15 21 26 31 35 39 41 40 39 37 34 31 24 17 16 17 16 16 16 16 16 14 11 9 11 15 16 15 13 12 12 14 14 14 14 18 21 18 13 13 14 12 12 14 18 25 30 32 31 30 29 26 24 23 23 22 20 20 17 17 16 16 30 40 37 36 34 32 32 32 32 32 32 32 33 33 34 33 33 33
4 4 3 3 3 3 3 6 10 17 24 31 34 38 42 41 39 39 34 30 26 19 17 18 15 15 15 15 16 15 14 10 8 15 20 18 16 16 16 18 18 15 13 17 23 21 12 12 15 13 12 13 17 19 19 24 28 27 23 22 24 24 23 21 19 18 17 17 16 17 29 38 37 37 36 32 32 30 31 33 33 33 34 33 34 33 33 34
4 4 4 4 3 3 3 4 7 10 17 27 34 38 42 41 41 38 32 31 30 21 18 19 16 15 15 14 16 16 15 11 9 13 17 18 18 19 20 20 20 18 15 18 23 21 15 14 17 16 16 15 17 16 13 18 26 21 16 20 24 24 23 21 19 18 17 17 17 16 22 31 35 36 35 32 31 31 32 33 33 34 34 33 33 33 33 33
3 4 4 4 4 4 3 3 4 4 9 20 32 41 44 44 41 35 31 35 32 21 17 19 17 16 15 14 15 16 14 12 9 10 13 17 18 19 22 21 20 17 15 19 21 18 15 16 17 17 20 19 17 14 10 15 20 15 12 16 18 19 21 19 17 17 16 16 17 15 17 28 34 32 33 34 32 33 34 32 32 32 32 33 33 33 33 33
3 3 4 4 4 4 4 4 3 3 5 13 27 40 46 47 41 32 34 36 28 20 19 18 17 17 15 14 14 16 15 12 9 9 13 18 19 20 21 21 22 20 17 18 18 17 17 15 15 17 21 19 16 16 14 12 13 10 10 12 12 13 16 17 17 15 14 17 19 14 14 25 30 27 31 37 36 34 33 31 30 29 30 30 31 31 32 33
2 3 4 4 4 5 5 4 4 4 4 9 23 37 46 50 39 32 42 39 24 20 20 18 18 17 16 15 13 15 16 13 10 8 13 17 18 20 22 22 24 24 21 20 18 18 20 18 18 20 20 17 15 19 20 16 13 10 10 11 10 12 13 16 16 12 15 20 18 13 13 19 23 20 23 32 35 33 31 30 29 29 30 29 29 29 30 32
2 2 3 4 5 4 4 5 5 4 4 6 16 33 46 48 37 34 42 35 23 21 21 20 20 18 17 15 13 14 15 13 10 9 14 19 21 25 25 25 26 25 23 23 20 18 20 21 21 20 19 18 17 17 19 19 18 17 16 13 13 14 14 16 15 12 18 20 15 13 12 16 22 19 15 21 27 28 28 28 27 27 27 27 26 27 29 31
3 2 3 5 7 6 5 6 5 4 5 4 13 32 41 38 34 35 36 27 23 25 23 21 20 18 17 16 14 14 14 14 11 9 13 17 22 25 23 24 25 23 22 23 21 19 18 18 18 18 18 20 21 19 18 19 19 21 21 18 18 17 16 19 18 16 18 17 14 13 12 16 20 16 13 15 18 21 25 25 24 24 23 23 23 23 26 30
3 3 3 4 7 9 7 7 6 6 6 3 14 33 38 36 36 34 32 27 23 24 23 23 22 19 18 17 16 14 13 14 12 10 11 14 19 22 21 23 23 21 21 21 20 19 18 18 17 18 18 19 21 21 20 19 18 20 21 20 19 18 20 24 21 19 18 15 13 11 13 19 17 13 12 13 14 15 18 20 22 22 21 20 21 21 23 27
3 2 3 4 7 10 10 9 7 7 7 4 15 35 40 40 40 34 33 32 27 25 24 24 23 21 21 21 18 16 14 14 12 11 12 15 22 24 23 25 25 23 22 21 20 19 20 21 17 16 16 17 20 20 20 20 17 17 19 19 18 17 19 21 20 19 17 14 13 13 17 21 17 13 12 11 12 14 13 15 18 20 21 20 21 22 23 25
3 3 3 3 5 9 11 13 11 10 11 5 14 37 43 39 38 35 34 34 31 30 28 26 26 24 23 22 21 19 17 15 13 11 12 15 21 24 23 23 24 25 23 22 21 20 21 20 15 13 14 15 18 19 19 20 18 17 17 17 17 16 16 15 14 15 14 14 16 16 19 19 15 13 13 11 12 13 13 14 15 18 19 21 24 25 25 25
3 3 3 4 6 10 14 19 19 19 17 11 19 36 38 36 36 35 36 36 33 32 30 30 30 28 26 24 22 21 18 16 15 12 11 12 16 19 20 20 20 22 23 23 22 20 20 18 14 14 14 13 15 18 18 19 19 18 17 16 15 15 14 14 13 12 12 16 18 16 16 16 15 14 13 13 13 13 14 14 14 16 18 21 24 25 26 26
4 4 4 4 5 9 17 28 35 33 26 22 26 30 28 32 35 34 36 37 34 33 33 33 32 31 29 25 22 21 20 18 17 15 12 11 12 14 17 19 18 18 20 21 22 20 18 16 14 14 14 11 13 16 18 18 18 17 16 15 14 13 14 13 13 12 13 16 17 15 14 14 16 16 13 13 14 13 14 14 14 16 17 20 22 22 24 25
8 6 5 7 12 16 22 35 48 50 42 37 34 29 26 27 26 27 34 36 35 35 35 36 36 33 31 29 25 22 23 22 21 20 17 14 13 13 14 16 17 17 16 16 19 20 18 16 14 13 12 10 12 15 17 17 17 17 15 15 13 12 13 13 13 13 14 15 15 14 14 12 13 15 14 13 14 13 13 14 14 16 17 18 17 18 22 24
13 10 8 14 23 25 29 43 59 64 60 54 45 35 31 27 20 21 29 36 38 39 37 37 38 37 34 33 31 27 28 28 26 27 25 18 16 16 17 17 16 17 17 16 18 18 17 17 14 13 12 11 12 14 16 16 16 16 15 15 14 12 12 11 12 12 13 18 17 14 15 14 10 11 13 13 13 13 13 13 14 15 16 15 15 15 18 22
18 14 13 20 23 22 27 46 69 78 75 67 54 40 35 34 29 24 26 35 40 43 46 45 43 44 41 37 36 34 34 33 31 34 32 25 20 19 20 18 16 16 17 18 18 16 16 16 15 14 13 12 13 14 14 14 15 16 15 15 13 12 11 10 11 10 11 22 28 22 16 13 9 9 11 11 12 12 13 13 13 12 12 13 14 14 16 20
22 17 21 32 33 23 20 36 63 80 82 78 66 52 44 43 44 40 38 46 52 51 54 54 49 49 47 44 41 39 40 39 36 38 37 31 26 22 23 24 22 18 16 16 17 16 17 16 15 14 14 13 13 12 12 12 14 15 15 15 13 12 10 10 13 11 7 15 24 21 14 10 8 9 9 10 11 11 12 12 12 12 12 12 13 14 15 17
23 17 26 44 46 31 19 31 62 84 89 91 87 79 74 73 74 73 67 66 66 61 59 57 52 50 49 48 47 45 46 44 41 41 40 35 30 26 26 30 29 24 21 20 20 18 16 16 15 14 14 14 14 13 12 11 12 14 14 15 14 12 11 10 13 13 9 9 12 13 13 10 8 8 9 10 10 11 12 12 12 14 13 13 13 14 15 15
22 18 29 51 57 42 28 37 66 88 96 99 98 96 96 95 94 91 84 76 71 66 63 58 55 55 56 56 57 56 53 50 47 46 42 37 34 33 32 33 32 28 24 24 24 20 17 16 16 15 13 13 13 13 13 12 13 13 14 15 15 13 12 11 11 10 9 10 11 13 15 12 8 7 8 9 9 10 11 12 12 13 13 13 13 13 15 16
22 20 30 53 63 50 44 58 77 91 98 99 97 99 98 97 95 90 85 81 74 67 64 61 60 63 63 62 64 64 61 57 55 53 50 44 41 40 40 38 36 31 27 30 32 28 25 22 20 18 18 17 16 15 14 13 14 14 14 14 15 14 14 12 11 10 9 9 10 13 15 12 9 9 7 8 9 10 10 10 11 12 12 13 13 13 15 16
25 24 31 51 63 54 61 87 97 97 100 96 92 95 96 96 96 91 84 79 72 66 65 66 67 67 66 66 65 65 64 62 61 59 56 52 48 45 44 44 42 37 33 36 37 34 33 30 24 23 23 22 21 20 17 15 14 15 14 14 14 14 14 13 10 11 14 12 9 11 12 10 9 9 8 7 9 10 10 10 11 12 12 13 14 14 15 15
36 37 38 50 64 65 74 96 101 96 97 93 85 86 88 90 92 91 86 78 70 66 64 64 65 66 67 68 66 64 64 64 65 64 60 56 53 49 47 46 45 42 38 39 37 33 33 31 26 26 28 27 24 20 17 16 15 15 15 14 14 14 14 14 13 12 14 14 11 9 10 10 10 9 8 7 8 9 9 8 9 10 12 13 13 14 15 16
46 52 57 65 74 74 74 84 92 91 90 88 81 78 80 81 81 84 85 81 75 68 61 61 64 65 68 72 69 65 64 64 64 63 61 59 56 53 51 48 47 46 43 41 39 34 33 31 28 29 32 33 32 27 20 18 17 16 15 13 14 15 13 13 14 13 13 15 15 12 10 10 10 8 9 8 8 8 7 7 7 7 9 11 12 13 14 15
55 58 69 83 89 85 75 72 76 75 75 81 81 78 78 76 74 78 79 79 77 72 67 65 65 66 69 74 75 68 64 62 59 58 58 56 55 53 51 49 48 47 45 43 40 37 37 34 31 33 33 31 32 30 24 21 18 16 15 13 12 13 14 13 13 13 13 14 15 13 11 10 9 8 8 8 8 8 7 8 8 7 8 9 10 10 10 11
62 62 70 84 92 91 84 77 75 71 72 79 79 79 84 82 78 78 74 71 69 66 69 70 69 71 72 73 75 70 64 61 58 57 56 53 53 51 49 49 48 46 46 43 40 41 42 38 36 39 37 29 28 29 26 24 20 16 15 14 12 11 12 13 13 13 13 13 12 12 11 10 9 8 7 7 7 8 9 10 9 9 9 9 9 9 8 11
68 71 78 84 83 83 86 84 79 73 73 76 76 81 91 94 89 82 74 70 63 58 66 73 72 73 74 75 76 68 63 63 61 59 59 57 55 51 50 52 50 46 46 44 41 42 46 44 40 41 41 33 27 28 27 24 23 19 16 14 13 12 11 11 13 12 12 13 12 12 11 9 10 10 9 8 7 8 10 9 9 11 12 12 12 10 10 14
75 80 89 92 83 79 86 85 80 76 73 74 78 83 87 89 93 87 74 71 73 72 76 77 71 68 70 73 74 67 65 68 64 59 60 60 56 52 51 51 50 47 45 44 45 44 47 47 40 42 49 39 28 30 30 26 24 20 18 16 13 12 11 10 12 12 12 12 12 11 11 10 11 12 11 10 8 7 8 7 8 10 12 11 11 10 11 14
78 82 93 99 87 77 80 79 77 78 77 75 80 85 80 77 87 91 81 75 80 86 87 81 76 75 71 63 62 66 69 70 65 60 58 57 55 53 50 46 46 47 44 44 47 46 48 49 42 48 58 44 30 35 36 31 29 23 18 17 15 13 12 11 11 11 12 12 11 11 11 11 12 12 11 11 10 8 7 7 7 8 9 9 8 8 11 14
Wind_Speed
18 19 20 21 22 22 23 24 24 25 25 24 24 23 23 22 22 21 20 20 19 18 17 15 15 14 13 12 11 11 11 12 13 15 14 10 15 20 19 20 24 27 27 27 26 23 21 18 15 13 11 10 8 5 6 8 10 11 8 7 3 3 6 6 10 11 11 16 18 17 15 13 9 4 6 7 5 4 6 7 10 13 13 11 13 15 18 21
17 18 19 19 20 20 21 22 23 23 24 24 24 24 24 23 23 22 22 21 21 20 18 17 16 15 14 13 12 11 11 12 12 13 13 11 16 18 16 19 24 28 29 29 26 23 21 17 16 15 12 10 8 8 9 9 11 10 7 6 3 8 8 7 11 12 11 18 18 15 14 11 8 2 3 6 5 5 6 8 10 14 15 15 16 18 19 20
18 18 18 19 19 19 20 20 21 22 22 23 23 24 24 24 24 23 23 22 22 21 20 19 18 16 15 14 13 12 12 12 11 11 11 11 15 16 15 18 23 28 29 29 26 23 19 16 16 15 14 12 11 11 11 11 11 9 8 8 8 10 10 9 11 12 8 16 20 15 14 14 10 3 3 2 4 5 5 5 7 11 15 15 17 19 20 20
19 18 18 18 19 19 19 19 20 20 21 21 22 23 23 24 24 24 23 23 23 22 21 20 20 18 16 15 14 13 13 12 10 9 9 8 13 15 15 17 21 25 28 29 27 25 22 19 18 16 16 14 13 14 13 13 12 10 10 8 9 8 10 11 11 14 7 11 19 18 16 16 11 5 3 3 3 3 2 2 4 7 12 14 15 18 20 19
20 19 19 18 18 18 18 19 19 19 20 20 20 21 22 23 23 24 24 24 24 23 22 21 21 20 17 16 15 14 14 11 7 4 5 6 10 12 14 16 18 23 28 29 29 28 26 24 21 20 19 17 16 17 15 14 13 14 12 9 9 7 12 14 12 13 7 8 17 22 17 14 11 7 4 3 5 2 4 4 1 3 7 11 11 15 18 17
20 20 20 19 19 18 18 18 18 18 19 19 19 19 20 21 22 23 24 24 24 24 23 22 22 21 19 17 16 15 14 8 3 2 3 3 6 8 13 16 17 22 28 29 30 30 28 27 26 24 21 19 20 18 14 15 16 16 14 12 11 9 12 14 9 8 6 10 17 24 18 14 12 7 5 4 5 3 5 5 2 2 4 6 9 12 16 16
20 20 20 20 20 19 19 18 18 17 17 18 18 18 19 20 20 22 22 24 24 24 24 22 23 22 21 19 18 18 14 6 4 7 7 5 4 6 11 16 18 22 27 29 31 32 31 30 28 25 22 21 21 17 14 18 19 17 15 13 9 8 10 10 8 6 7 13 16 23 21 18 13 7 6 4 3 3 6 5 1 2 5 5 8 11 13 14
20 20 20 21 21 21 20 20 19 18 17 17 17 18 18 19 20 20 21 22 22 23 23 23 24 22 22 20 19 20 14 6 9 12 10 9 7 6 9 14 19 23 26 28 30 31 31 31 29 26 24 22 20 16 15 18 22 21 16 12 7 8 9 7 6 7 9 14 17 26 26 19 12 6 6 4 1 3 7 7 5 2 4 5 6 10 13 15
21 21 20 21 21 21 21 21 21 20 19 18 18 18 18 18 19 19 20 20 21 22 22 23 24 23 23 21 21 19 11 9 13 12 9 12 11 10 10 12 17 22 24 26 28 30 31 31 29 27 25 21 20 18 17 19 22 22 16 10 11 11 11 10 10 9 12 14 17 31 29 20 14 9 8 6 3 5 7 9 8 6 4 3 5 9 13 15
21 21 21 21 21 22 22 22 22 21 20 20 19 19 19 18 18 19 19 18 19 21 22 23 23 23 23 21 23 16 8 10 13 11 10 11 12 12 12 12 15 19 23 26 28 31 31 30 28 26 24 22 21 20 19 22 22 20 16 15 17 16 15 15 15 13 16 20 19 29 32 23 17 15 13 8 6 8 9 9 10 9 6 4 4 7 13 16
23 22 22 22 22 22 22 23 23 22 21 20 20 20 20 20 19 18 17 17 18 20 21 22 22 23 22 23 22 11 8 13 13 13 14 13 12 12 13 14 16 18 22 26 29 30 29 28 27 26 26 24 24 22 22 24 21 18 17 19 21 20 20 18 17 14 17 21 18 23 32 26 21 20 15 10 8 9 9 9 9 10 9 6 4 7 12 16
24 23 23 23 23 22 22 23 23 22 21 20 21 21 22 21 20 18 17 16 18 20 20 21 22 22 22 22 14 4 10 17 16 16 17 15 15 15 15 15 16 18 22 26 28 29 28 28 28 29 29 25 25 24 22 23 21 19 18 22 23 22 25 22 18 13 14 18 15 21 32 29 27 24 16 13 11 10 10 10 11 11 10 8 6 8 12 16
25 25 24 24 24 24 23 23 23 22 21 21 22 23 23 22 21 20 18 18 18 19 20 21 21 21 22 16 4 8 13 17 20 21 20 17 16 18 19 19 18 18 21 25 27 28 28 28 29 31 29 26 27 24 21 21 21 21 20 22 22 24 26 22 20 15 13 18 17 24 35 32 30 25 18 17 15 14 13 13 14 13 12 10 8 9 12 15
25 25 25 25 25 25 25 24 24 23 22 22 23 24 24 22 22 21 20 19 18 19 19 20 20 21 20 9 7 16 17 20 23 21 20 19 17 18 21 21 20 19 20 23 25 27 29 29 29 31 32 30 28 24 22 20 19 20 20 22 22 24 25 20 20 20 16 20 21 26 36 34 30 27 24 21 19 17 15 15 17 16 15 11 9 9 12 14
25 25 25 26 26 26 26 26 25 24 23 23 24 25 24 23 23 22 21 20 20 20 20 21 20 21 19 8 9 19 20 21 18 12 15 17 17 18 18 19 20 18 19 21 22 25 27 29 31 33 34 31 28 24 23 22 21 21 20 23 24 24 26 21 20 23 19 20 23 28 37 35 30 28 27 24 22 20 17 16 18 19 17 13 10 9 12 13
27 26 26 26 26 27 27 27 26 25 25 25 25 25 24 24 24 23 23 22 22 21 21 21 20 21 18 9 11 20 21 19 14 14 16 15 17 16 13 15 17 17 18 19 21 22 24 28 32 33 32 32 31 26 23 25 26 26 23 26 26 25 28 24 19 20 19 20 26 32 37 36 32 30 28 27 25 22 20 18 19 20 19 15 11 9 11 14
27 27 27 27 26 26 27 28 28 26 26 27 26 25 25 25 25 25 25 24 24 23 23 23 21 22 18 11 12 15 19 21 20 21 20 16 16 15 15 16 16 17 17 17 20 23 23 26 29 32 33 34 33 27 24 29 31 31 27 27 28 26 27 27 20 14 13 19 30 32 36 39 35 31 29 28 26 24 22 20 20 21 20 17 12 9 11 14
27 27 27 28 28 27 28 28 28 26 27 28 27 26 25 25 26 26 26 26 26 24 24 24 23 23 18 11 13 14 18 23 25 25 24 20 18 18 18 16 15 16 17 17 21 25 24 25 28 31 35 37 36 33 32 34 32 31 28 27 28 27 28 29 24 15 12 16 29 32 37 40 36 32 30 28 27 25 23 21 22 22 21 19 15 11 11 14
28 27 26 26 27 28 28 29 28 27 27 28 28 28 26 26 27 27 27 27 26 25 24 24 23 22 15 8 11 16 19 21 23 26 26 23 20 21 20 17 17 18 20 21 24 27 26 25 29 34 39 42 41 40 40 37 31 28 27 25 26 27 30 30 25 20 13 14 27 35 37 39 38 36 32 29 27 25 23 23 24 24 23 22 18 12 10 13
29 28 27 26 25 27 28 28 28 28 28 27 28 28 28 28 28 28 29 27 26 26 26 25 26 25 19 13 12 15 18 21 24 25 26 25 23 23 23 22 21 21 24 25 24 26 28 30 36 41 44 44 42 40 38 35 32 31 28 27 27 27 30 29 26 24 14 12 23 35 38 38 39 40 36 31 27 26 27 28 28 27 26 25 21 15 10 11
29 28 28 26 25 25 26 27 27 28 29 28 27 27 28 29 28 30 31 27 24 26 27 26 28 28 23 18 18 18 18 23 25 24 25 27 26 26 27 27 28 28 29 26 22 23 28 37 44 43 43 42 41 39 35 33 33 34 33 32 32 31 32 30 27 26 16 12 19 30 40 42 42 43 39 33 29 28 28 27 27 28 28 27 24 17 10 9
28 28 27 26 25 24 25 27 26 27 28 28 28 27 28 29 28 30 33 30 23 22 24 25 26 29 23 17 19 22 23 25 25 25 27 29 31 31 30 31 33 33 29 26 25 26 31 42 46 41 42 42 41 39 36 34 33 34 35 34 35 36 34 30 28 27 20 17 19 23 36 44 45 46 42 37 33 30 26 23 21 22 25 26 24 19 11 11
28 28 27 26 24 23 24 25 25 26 26 26 26 26 26 28 27 28 32 35 29 22 21 23 25 28 24 18 20 26 30 28 24 26 30 31 32 32 32 33 35 33 31 31 33 33 35 42 45 41 41 42 43 41 37 35 34 36 36 34 38 39 33 29 28 23 15 13 15 18 26 39 43 42 42 38 34 29 25 23 22 21 22 19 18 18 14 13
29 29 28 26 24 21 22 24 24 24 25 24 24 24 24 25 25 26 28 35 37 29 21 21 24 26 24 19 21 28 30 29 27 28 31 33 33 32 33 34 35 36 36 35 36 38 39 38 38 41 41 41 42 43 40 37 37 40 39 38 42 41 35 33 31 25 20 17 16 17 19 29 36 39 40 37 33 31 29 28 27 27 26 21 19 19 16 13
30 31 29 27 25 21 20 22 22 23 24 22 22 22 21 21 21 24 26 30 37 35 25 22 23 22 22 23 25 27 29 31 29 28 32 34 32 32 32 32 35 38 38 36 34 37 41 37 32 35 40 42 41 42 43 40 39 42 44 44 45 42 37 34 31 27 25 24 19 15 12 18 29 39 41 38 36 35 34 34 32 29 29 29 28 25 19 15
32 33 31 29 28 23 19 20 21 22 23 20 21 21 19 19 17 21 25 26 32 33 23 18 16 16 20 25 27 26 28 31 28 29 35 35 32 31 30 33 35 36 36 36 34 36 39 37 32 30 33 39 41 43 44 41 38 42 46 46 45 42 38 36 33 26 22 23 20 14 12 13 23 37 40 39 39 36 37 38 35 32 31 31 31 28 24 20
35 35 33 31 30 27 21 19 21 21 21 20 20 20 19 17 13 16 19 17 20 22 15 10 9 12 15 19 26 29 27 26 25 33 38 35 34 33 31 33 33 32 34 34 35 39 36 34 35 32 29 33 40 45 46 41 38 45 47 44 44 43 39 36 32 27 27 32 29 22 21 17 19 32 40 42 41 39 41 41 38 36 34 32 31 29 27 23
36 36 36 32 31 31 25 23 25 22 19 19 18 19 19 15 11 10 9 5 5 6 5 5 7 11 12 14 22 30 29 20 19 31 38 36 35 35 34 34 32 30 32 36 40 40 35 33 34 34 33 33 39 44 42 40 42 47 44 39 42 42 40 35 27 25 30 30 31 32 27 17 15 26 36 43 47 45 45 42 38 37 35 34 33 31 29 26
35 36 37 34 31 31 28 27 31 25 17 17 17 18 17 12 10 7 3 3 3 4 6 5 7 9 11 13 17 26 31 23 14 22 35 39 38 38 36 34 32 28 29 35 40 36 31 29 27 29 36 37 37 36 34 37 43 44 39 37 39 37 36 33 25 26 27 20 25 34 28 16 15 27 33 41 52 51 46 42 37 35 33 32 32 30 30 29
34 35 37 36 32 31 27 27 33 29 18 15 16 17 14 12 11 9 6 7 5 4 7 8 10 9 8 12 15 20 30 28 15 16 31 38 37 38 36 32 32 31 30 33 36 37 32 25 22 26 31 32 33 31 29 31 34 33 32 35 36 36 36 32 27 27 20 14 26 36 33 20 14 26 35 38 49 51 45 43 40 37 35 33 31 30 31 32
34 33 34 35 34 34 30 26 30 29 21 15 15 15 13 12 14 10 6 11 9 5 8 9 11 13 9 11 14 16 25 30 20 17 31 40 39 41 37 32 34 32 30 35 37 37 36 29 26 28 26 24 28 32 30 27 27 27 29 33 31 30 32 30 28 24 12 10 24 34 35 26 18 27 37 36 40 45 45 43 40 37 36 34 31 30 31 33
34 32 32 32 33 35 33 28 26 26 21 15 13 14 14 12 17 18 11 7 6 8 13 12 10 14 13 13 16 15 20 29 26 20 28 39 42 46 43 39 40 33 30 40 41 36 39 39 33 28 25 23 25 30 31 30 30 30 34 33 22 14 15 16 14 11 9 11 19 26 27 25 28 35 38 35 36 39 41 41 39 37 35 33 30 30 31 32
35 33 30 29 32 34 32 29 26 23 20 15 12 15 16 11 13 24 22 13 7 8 13 14 12 13 12 13 15 16 18 26 30 24 23 34 42 46 46 43 42 36 32 36 37 32 31 35 37 34 31 28 29 33 35 36 36 37 39 37 24 9 4 7 5 4 10 14 17 24 24 19 27 37 37 36 35 34 36 38 38 38 36 34 32 29 29 30
35 34 30 27 31 33 29 28 25 21 17 15 15 17 21 16 10 14 18 20 20 17 16 16 14 13 11 9 9 12 16 21 29 28 23 33 46 47 47 47 43 39 34 27 29 32 25 23 33 40 38 34 34 37 36 33 35 38 39 38 32 22 10 5 5 3 7 10 12 18 17 11 20 33 35 33 31 30 32 33 35 36 35 36 36 33 29 29
35 33 30 27 30 31 28 25 23 20 16 15 18 21 27 26 16 8 9 18 27 29 28 24 19 17 15 11 7 8 13 17 23 28 26 31 44 48 48 49 45 42 37 26 24 30 29 28 32 34 35 37 36 37 35 31 31 34 36 37 39 40 30 14 10 11 9 8 9 16 16 14 21 31 33 29 26 27 28 29 32 34 36 38 41 39 35 31
35 31 27 26 27 27 25 24 20 18 17 17 21 29 35 30 21 15 11 13 20 26 29 28 25 21 18 16 14 12 16 15 13 21 28 30 36 42 45 46 45 44 44 37 29 24 24 33 36 27 29 36 36 36 37 35 31 28 33 42 42 41 39 26 18 20 15 7 8 15 18 20 22 25 27 25 24 25 25 27 31 31 33 39 42 42 39 35
36 30 25 23 24 23 23 23 20 17 19 21 26 33 35 32 28 24 15 11 15 17 18 19 17 14 11 12 17 17 16 15 11 14 22 24 25 32 40 42 41 43 45 43 39 32 25 28 34 29 28 32 34 34 35 36 35 30 31 39 38 33 36 32 18 14 12 6 7 14 18 20 18 18 23 25 25 26 25 25 30 31 32 36 39 40 40 37
37 31 25 20 21 21 20 23 22 20 21 25 30 33 31 30 30 27 23 20 19 18 16 15 12 9 7 9 14 16 12 10 10 7 9 15 12 14 28 37 37 41 43 42 43 42 34 28 32 32 29 28 29 33 35 34 36 36 34 33 29 25 27 30 19 8 7 5 6 9 13 21 25 22 23 25 25 26 25 25 28 31 33 34 34 36 38 38
37 31 22 16 21 21 18 21 23 22 24 28 31 31 28 28 27 24 27 30 29 25 21 19 15 11 11 12 14 15 12 10 9 4 2 9 7 5 17 29 33 37 41 44 47 47 39 31 31 34 31 27 27 34 40 39 36 37 38 36 35 30 30 33 28 15 8 4 5 6 7 20 33 31 26 24 22 23 23 25 27 27 29 32 33 33 36 38
35 31 18 15 23 23 18 20 22 22 26 29 31 29 26 25 23 21 23 28 31 29 24 21 20 18 18 19 19 20 19 17 15 11 5 8 7 5 11 22 29 33 36 43 48 48 43 35 31 32 30 28 30 33 39 45 43 40 40 40 40 36 32 31 32 31 21 7 3 3 6 21 33 30 29 27 22 22 23 23 25 26 27 29 29 29 31 34
32 29 18 16 23 22 18 19 20 21 24 27 28 28 28 26 24 21 19 20 24 25 23 21 22 23 23 22 23 25 24 22 20 15 10 9 9 9 9 13 19 24 29 34 38 41 41 37 36 36 32 31 35 34 33 40 45 46 44 43 41 37 29 17 15 29 33 21 12 8 9 25 32 26 26 28 25 25 25 24 25 27 28 27 26 26 28 31
31 28 18 18 22 18 16 16 15 17 19 21 23 24 25 23 19 16 16 18 20 21 19 16 15 18 18 17 20 23 22 22 21 16 9 8 11 14 13 10 10 12 15 18 24 32 37 37 39 44 44 39 36 36 33 33 38 43 44 44 42 39 34 22 13 20 29 27 25 17 12 25 35 30 23 22 23 24 25 27 26 25 27 27 25 25 28 31
30 26 17 16 19 15 13 13 12 13 14 14 18 21 22 20 17 14 16 17 17 16 14 12 11 11 13 13 14 15 17 18 18 16 13 13 16 20 18 14 13 11 9 10 15 26 34 34 31 35 43 43 41 40 39 35 34 37 43 46 45 44 43 38 32 28 26 24 21 12 8 18 31 34 27 20 22 24 25 29 28 23 22 23 24 25 26 30
28 24 17 15 17 14 10 8 6 8 9 9 12 16 19 21 19 17 18 16 12 11 12 12 12 11 12 13 12 12 13 13 12 14 15 17 21 23 22 18 15 12 7 5 7 15 23 24 18 17 21 26 29 31 35 39 37 35 38 43 46 48 47 44 41 34 26 26 26 15 8 12 20 28 29 24 21 22 23 27 29 27 25 24 24 25 24 28
26 23 17 15 16 10 7 3 6 8 10 10 9 9 13 19 19 17 18 17 12 11 12 12 12 11 11 14 16 15 14 13 14 14 15 18 20 22 23 18 14 12 6 2 6 11 15 15 15 14 11 11 13 15 24 35 38 36 37 39 43 49 50 46 42 33 22 22 30 25 13 13 15 19 26 27 23 21 22 25 28 28 27 24 22 23 25 28
24 21 19 20 14 2 5 3 6 8 12 12 9 8 9 13 16 16 16 17 16 16 17 16 14 13 13 15 18 19 18 16 17 17 18 22 22 22 23 19 15 15 11 7 10 15 18 17 17 18 18 17 17 19 25 32 37 42 42 40 41 46 50 50 44 37 29 23 30 35 25 16 14 15 22 27 26 27 28 30 31 30 29 26 21 21 25 29
20 19 19 21 13 1 3 6 7 8 11 12 10 9 9 9 11 14 14 14 15 18 20 17 13 13 13 14 16 19 20 19 19 20 20 24 26 27 27 24 21 20 17 13 14 17 20 19 17 20 22 23 21 22 27 31 35 42 44 43 43 41 45 51 49 47 42 29 28 39 38 28 22 20 22 22 22 28 31 29 29 29 30 31 28 26 29 30
18 17 15 16 13 10 10 10 9 11 12 11 11 10 9 8 9 12 13 12 12 13 15 14 12 13 13 13 14 17 20 23 24 22 22 25 28 29 31 28 25 23 21 16 14 17 20 19 17 19 24 27 25 22 26 31 34 38 41 44 46 43 42 48 52 53 52 42 37 42 44 43 41 38 35 29 24 26 26 24 25 25 26 29 30 32 32 31
17 17 14 13 13 13 13 12 12 12 12 11 11 8 7 6 7 9 13 15 14 12 12 13 14 14 15 14 15 17 19 22 25 25 25 27 29 30 32 31 27 25 21 16 13 13 16 16 14 16 23 27 26 23 25 31 34 37 40 42 45 46 46 46 48 51 55 53 50 48 47 48 49 46 44 39 30 24 22 24 26 24 23 24 26 29 29 26
16 16 15 15 15 13 11 11 12 13 12 11 10 8 7 6 6 8 11 14 17 15 14 15 16 16 16 16 17 19 19 20 25 28 27 27 29 31 31 30 29 28 23 18 14 12 15 15 12 15 21 23 21 19 21 27 31 35 38 39 42 46 49 49 48 48 51 52 52 50 48 49 48 45 44 40 35 27 23 26 27 22 20 19 18 20 23 24
15 14 14 16 16 13 11 12 13 14 13 10 9 9 8 6 7 9 10 11 14 15 14 16 19 20 20 19 18 20 18 18 23 26 26 26 29 30 30 30 31 32 29 23 17 15 17 17 13 14 22 19 13 10 14 24 30 34 39 42 42 44 47 49 48 47 48 49 51 51 52 51 45 42 42 39 35 35 32 31 31 25 19 18 16 15 19 24
15 13 13 15 16 13 13 13 13 13 13 11 10 10 9 8 8 10 10 9 11 13 14 16 18 19 22 24 22 20 19 19 23 26 26 27 28 29 31 33 32 33 32 27 21 18 17 17 13 13 20 17 10 7 13 15 17 28 46 52 47 44 44 44 44 46 47 48 50 52 54 52 42 38 42 38 34 39 40 37 38 33 25 23 22 18 18 21
Wind_Direction
306 302 299 298 295 293 290 288 286 285 284 284 284 284 285 285 286 286 286 287 287 290 291 294 296 297 298 298 299 292 286 279 274 271 256 233 232 229 220 218 214 210 206 203 205 208 213 213 211 219 227 230 233 243 238 220 228 242 255 274 284 133 138 132 159 170 175 184 187 190 198 211 219 213 203 223 239 253 239 191 164 171 178 179 191 204 190 176
314 309 306 303 300 298 295 292 290 288 285 283 282 281 281 281 282 282 283 283 283 285 287 289 291 292 294 297 298 293 291 284 278 274 262 237 233 232 223 223 217 209 205 203 204 208 216 218 217 224 228 227 219 225 227 214 229 243 257 260 190 132 138 147 164 169 181 191 195 200 208 234 245 272 236 231 255 273 247 206 182 185 189 180 185 200 194 184
318 316 314 310 307 303 300 298 295 292 289 286 283 280 279 278 278 279 279 280 280 281 283 286 286 287 289 292 294 293 292 291 290 280 268 245 234 234 227 224 216 209 204 202 202 203 206 211 216 222 221 216 209 220 223 207 218 231 243 227 163 132 146 167 171 160 174 198 203 209 215 231 236 265 298 264 277 284 274 238 210 203 203 194 186 196 197 191
318 317 316 315 312 309 306 303 299 297 294 291 287 283 281 278 276 275 275 276 277 278 279 282 283 283 283 286 289 289 293 301 300 281 271 252 234 235 231 218 209 206 201 198 198 194 192 195 204 212 215 210 203 218 223 207 210 213 214 192 151 141 160 164 163 158 166 212 215 221 222 222 226 252 285 6 326 267 326 320 247 226 221 213 193 190 197 196
317 316 315 313 312 311 310 307 304 301 298 296 292 288 284 280 277 275 274 273 273 275 276 278 280 280 279 280 281 284 292 304 313 283 267 260 238 234 227 203 194 200 199 196 195 191 188 191 196 202 207 206 203 215 219 207 210 204 189 169 163 175 164 150 153 171 199 255 229 225 227 221 220 242 253 352 354 333 346 359 340 224 226 231 211 191 195 197
316 316 314 312 310 309 309 308 306 304 301 299 295 292 288 284 280 276 274 272 271 272 273 274 275 276 277 275 275 278 281 286 315 268 225 246 231 215 205 184 178 194 197 195 196 192 189 191 196 201 204 204 205 214 213 207 215 206 187 183 186 191 174 156 163 198 258 280 239 225 227 222 222 248 265 300 342 332 308 329 21 142 181 224 222 199 196 198
314 314 313 312 310 309 308 307 306 305 303 301 298 295 291 287 284 279 276 274 272 271 271 272 271 273 274 272 272 271 270 272 263 238 215 220 214 186 186 175 174 190 194 195 197 195 191 194 200 204 205 204 208 217 213 211 223 218 193 183 182 192 189 172 179 205 268 284 257 230 223 223 231 259 258 273 326 303 284 277 256 129 140 184 215 209 203 200
312 311 310 310 309 309 308 307 306 305 304 303 301 297 294 290 287 283 280 277 274 272 270 270 269 270 271 270 270 267 264 263 248 235 225 230 215 183 189 184 184 188 191 197 200 200 196 198 204 203 206 209 212 218 215 216 225 218 194 182 202 221 218 215 210 215 260 284 261 232 226 231 244 268 255 270 330 264 268 251 239 206 150 171 211 216 207 202
310 309 308 307 307 307 306 306 306 305 305 304 302 300 297 293 289 286 284 282 278 275 271 269 268 268 268 268 269 266 263 260 250 237 230 228 210 194 197 195 196 193 192 197 201 204 201 201 204 204 208 212 212 216 216 219 222 217 207 220 245 253 257 265 259 248 266 279 246 226 227 234 236 235 237 244 226 227 248 244 240 234 195 180 210 216 210 206
310 309 307 306 305 304 304 304 303 304 305 305 303 301 297 293 290 288 287 285 281 277 274 271 269 267 267 266 267 267 259 251 243 227 218 215 207 203 200 199 204 201 199 199 201 205 203 202 204 205 209 210 211 214 216 219 223 226 235 255 260 265 271 276 270 262 275 277 254 230 228 231 228 225 233 239 221 215 230 238 238 237 225 211 219 215 209 209
309 308 307 306 304 302 301 300 300 300 301 303 302 299 296 293 290 290 290 288 282 278 275 273 272 270 267 265 266 269 235 225 218 211 209 204 201 202 201 202 206 206 207 205 204 205 203 203 204 206 209 209 210 212 217 220 226 236 252 262 260 267 275 276 268 266 276 271 264 243 229 225 224 225 239 250 239 225 227 239 243 243 230 220 229 216 208 207
307 306 305 305 303 301 299 297 296 296 297 299 297 294 292 291 290 292 292 286 280 277 277 276 274 272 269 269 270 252 220 214 204 207 210 209 204 200 197 197 203 206 209 211 210 207 203 203 205 207 208 208 210 213 218 221 230 240 253 263 262 273 278 272 265 265 268 259 254 233 217 216 222 226 237 242 246 244 231 234 237 239 232 225 229 216 209 207
303 303 303 302 301 299 297 295 294 293 295 294 292 290 287 289 290 292 289 284 281 279 279 276 276 273 272 278 230 186 219 215 210 214 215 216 215 215 206 195 196 200 205 209 211 210 206 205 208 208 208 213 215 215 220 220 230 236 241 255 263 272 268 259 262 263 252 247 242 217 207 212 222 227 234 231 237 242 230 226 223 229 232 232 240 222 209 209
297 297 298 299 298 298 296 294 292 292 293 291 289 287 285 287 288 288 287 285 283 280 279 275 275 273 274 281 178 195 214 217 220 220 219 219 218 222 215 203 198 197 200 202 204 210 209 209 211 211 212 218 220 220 224 221 223 230 237 246 252 262 254 243 256 261 247 241 240 219 212 219 223 224 228 227 233 240 239 231 219 224 231 235 247 232 213 215
292 292 292 293 294 295 294 293 292 292 291 288 286 285 285 286 285 286 285 283 281 277 276 274 273 273 274 276 206 209 214 223 227 218 220 221 213 213 212 209 205 196 194 193 196 205 209 213 214 215 214 216 221 224 228 230 226 229 245 247 243 253 252 246 251 253 251 243 235 221 217 225 227 224 224 224 232 240 244 240 226 227 229 230 246 241 218 214
291 290 290 289 290 291 291 290 290 291 291 287 285 285 284 285 285 285 283 280 277 275 274 273 271 272 274 268 226 219 219 226 227 216 222 222 206 199 201 207 203 192 187 188 192 199 207 215 217 218 216 214 219 224 236 248 240 232 245 250 245 248 251 255 247 243 258 247 229 221 220 226 226 222 221 222 230 236 238 240 233 231 227 226 240 242 219 210
294 292 291 289 289 289 289 289 289 290 289 286 285 285 285 285 284 283 281 279 276 275 274 273 272 270 270 259 232 223 219 220 220 219 223 220 199 191 199 200 195 190 182 184 194 197 203 213 217 219 217 215 216 222 239 251 242 232 238 246 247 248 249 254 246 245 273 243 224 223 223 226 227 225 224 223 228 231 233 238 235 232 227 224 233 238 225 217
298 296 295 293 291 290 289 289 290 290 287 285 285 284 284 283 282 281 280 278 277 276 273 272 270 267 268 252 226 219 217 217 220 219 219 217 199 193 205 201 194 192 182 185 197 197 199 209 215 218 219 216 214 217 228 236 235 233 236 243 248 249 248 251 246 251 293 252 225 222 220 223 230 233 232 227 228 230 234 240 236 233 231 227 230 238 237 227
301 300 298 296 295 293 291 289 289 290 287 286 285 284 283 282 281 280 277 276 276 275 272 270 266 261 261 248 220 221 225 223 223 220 217 217 203 195 202 205 204 201 193 194 199 200 200 206 212 216 217 216 213 216 224 230 233 236 241 249 253 254 250 248 244 246 282 268 230 222 220 223 229 234 235 231 228 230 234 235 232 231 231 230 231 235 247 238
302 301 299 299 298 297 295 292 290 289 286 285 284 284 284 283 284 282 278 277 278 276 270 268 268 262 253 246 238 237 234 228 225 219 214 214 208 200 199 204 209 208 206 202 200 204 206 210 213 214 214 214 215 218 225 232 235 240 247 251 253 256 251 244 245 249 265 278 243 228 226 228 231 234 235 231 227 227 228 227 228 229 229 232 232 231 249 247
304 301 300 299 299 299 298 295 293 291 288 285 284 282 282 283 284 283 280 276 273 275 273 269 269 264 251 240 239 240 231 224 223 216 213 212 207 205 202 203 208 209 210 204 202 211 215 218 217 215 215 216 217 219 226 233 235 241 247 250 252 254 249 240 245 249 248 271 262 237 229 232 235 236 233 229 227 228 228 227 229 230 231 234 234 233 244 237
309 305 302 300 300 301 298 295 294 291 289 286 285 283 283 284 285 286 285 279 264 261 269 268 267 265 257 239 229 228 223 223 222 212 211 212 206 207 205 204 209 211 209 203 206 217 223 226 221 216 217 217 219 221 226 232 236 240 244 250 252 249 248 243 245 251 250 263 268 246 234 235 236 234 231 229 231 235 235 235 239 236 232 233 234 232 224 213
313 310 306 304 302 301 298 294 292 290 288 286 284 284 285 286 289 290 292 289 276 261 262 262 261 263 261 246 225 222 225 229 223 207 207 212 209 208 207 208 211 212 211 207 207 213 222 227 223 217 218 219 221 222 225 232 235 237 240 247 248 245 249 249 246 251 251 258 279 276 250 236 231 227 226 229 234 240 240 238 242 242 238 238 240 236 223 219
312 310 308 308 305 304 301 293 289 287 284 283 282 282 282 283 288 290 290 291 283 273 272 269 262 259 258 250 229 223 229 233 225 208 206 212 210 208 209 213 213 212 215 214 212 214 219 224 222 219 218 219 222 223 225 230 234 235 236 241 243 242 247 251 252 257 258 258 279 291 258 231 225 220 219 225 228 233 236 232 232 236 238 241 244 240 229 226
310 308 307 307 305 304 305 297 289 284 281 281 279 278 277 278 286 289 291 295 287 279 281 279 268 257 249 239 231 225 225 230 226 209 207 213 211 209 209 212 215 216 217 216 217 222 224 224 224 221 220 220 222 224 225 227 234 236 234 234 238 243 248 254 259 266 273 271 270 277 254 224 224 221 218 219 220 223 228 229 231 232 233 234 235 236 230 222
306 305 305 306 303 299 303 302 291 281 280 279 276 273 271 274 283 290 297 304 293 286 290 284 267 253 241 232 229 223 221 231 227 206 207 212 210 211 208 207 214 220 219 215 219 228 228 224 224 222 221 222 223 226 225 223 231 238 234 230 235 244 250 255 261 267 275 272 268 273 261 228 216 218 219 218 220 225 226 226 230 232 232 232 231 231 229 224
304 302 302 303 302 297 297 299 292 282 278 274 271 269 267 270 279 290 300 308 297 292 291 273 246 239 237 227 222 215 216 232 222 206 211 212 208 209 207 207 211 218 218 214 219 230 228 221 222 222 221 223 223 225 224 220 227 235 234 232 234 241 247 253 262 266 268 269 271 271 258 243 223 219 221 220 221 225 225 226 229 230 233 233 231 231 230 229
304 301 299 300 301 298 295 294 290 283 277 272 266 264 264 265 269 279 291 299 303 300 280 244 222 232 232 220 216 212 214 225 216 209 213 213 210 209 208 211 215 217 213 210 218 229 228 222 222 220 219 223 224 225 224 221 226 232 234 236 237 240 245 254 264 268 270 269 267 264 254 247 247 232 224 221 220 221 223 227 229 230 232 233 232 233 232 232
303 301 298 297 296 296 295 292 286 282 281 274 264 260 260 256 248 240 235 244 247 250 261 251 226 238 239 222 214 210 211 215 215 209 208 210 211 210 211 213 217 223 217 215 223 230 232 231 230 225 223 225 224 224 224 223 228 233 235 239 242 243 246 254 263 266 267 258 253 259 249 230 248 245 228 215 215 219 224 229 231 232 234 234 235 236 236 234
303 301 299 296 293 289 288 287 284 285 289 282 268 259 253 242 222 201 197 229 229 224 245 237 220 227 240 230 218 209 209 209 211 203 203 210 211 209 214 213 215 224 224 223 230 233 234 239 240 235 234 233 228 222 217 220 228 236 238 239 243 248 249 256 264 262 262 247 245 254 250 236 241 248 239 222 219 223 227 229 231 233 235 237 239 241 239 235
304 302 299 298 295 287 281 280 282 287 292 285 270 256 243 226 207 196 214 234 230 217 220 215 211 214 223 228 223 214 208 206 205 193 197 206 205 203 208 208 210 219 225 226 231 233 233 235 237 238 241 241 234 226 218 217 224 232 237 237 240 247 251 258 263 255 247 246 247 252 252 245 234 242 245 239 234 232 231 232 233 234 237 239 242 244 242 238
305 302 300 299 295 289 284 280 279 283 288 282 267 248 229 210 210 215 211 210 229 231 221 213 203 204 210 221 222 218 210 206 205 199 200 204 203 204 207 206 204 206 214 223 226 229 230 232 233 236 238 235 229 227 223 220 223 229 232 230 228 239 245 249 256 247 245 255 252 253 253 244 240 248 249 245 244 240 237 240 243 244 246 247 249 249 243 239
307 303 300 298 292 288 286 284 280 279 282 276 257 233 213 201 224 228 216 202 215 223 214 211 200 196 209 228 228 225 221 212 206 205 209 209 207 209 212 211 208 205 209 217 220 223 230 235 235 234 233 230 226 225 221 218 220 223 225 220 211 204 208 225 235 253 260 258 252 251 251 244 247 254 253 245 246 247 245 247 249 251 254 254 256 255 247 241
310 305 302 297 288 287 287 285 281 276 274 263 246 221 207 212 230 232 224 219 228 238 234 227 215 205 216 235 234 233 237 225 211 208 209 208 207 208 210 211 210 211 215 217 217 218 223 233 233 229 227 223 223 225 224 222 221 222 225 222 218 218 212 209 215 212 259 265 245 235 236 231 241 251 254 250 247 247 247 249 249 249 252 255 255 252 249 245
312 309 305 296 285 286 287 283 279 273 264 250 237 219 213 219 220 220 232 223 229 242 247 245 245 238 235 234 225 227 234 230 219 214 212 209 208 209 211 212 210 210 214 219 222 221 223 233 234 229 226 222 220 224 227 227 228 227 226 224 223 225 225 230 246 246 261 281 242 217 221 237 249 257 260 256 250 245 246 248 246 246 248 249 248 246 245 247
314 313 307 294 284 284 282 276 272 264 255 242 231 225 224 225 221 219 233 229 232 245 250 251 254 255 252 241 229 225 223 217 214 218 219 218 217 216 216 217 217 215 215 218 222 220 222 237 241 233 229 226 219 220 225 223 225 226 222 222 226 229 230 232 248 256 258 280 252 225 231 242 249 258 257 251 249 244 242 245 240 241 246 246 245 245 243 245
317 318 311 295 282 276 270 264 260 252 247 238 231 232 235 234 229 225 231 240 239 247 260 262 256 254 255 237 222 218 217 208 200 214 221 220 225 227 223 224 225 224 222 222 225 227 228 243 248 239 234 234 223 220 226 226 226 225 222 225 228 231 233 230 233 251 245 253 258 233 235 240 234 240 244 238 238 238 239 242 237 236 242 244 246 248 246 245
322 325 321 303 280 267 255 251 249 242 239 237 234 237 241 241 239 235 234 244 250 254 266 273 268 254 241 239 228 219 219 214 202 204 211 207 214 225 222 225 228 229 232 231 228 230 233 244 252 245 241 242 228 220 225 228 228 229 230 233 227 218 221 220 218 231 223 231 269 245 240 245 236 232 236 232 231 233 235 238 238 236 239 244 249 251 248 247
327 331 329 297 272 262 246 239 242 238 234 237 237 239 244 248 251 246 238 243 253 260 264 266 265 256 239 248 253 245 250 251 236 256 232 192 186 186 206 215 219 221 228 231 230 230 231 237 250 248 245 246 232 221 221 222 223 227 232 236 234 227 221 218 217 221 218 215 259 256 246 247 243 240 238 235 233 236 235 235 237 238 243 248 251 252 249 246
330 334 332 285 268 263 246 236 236 235 234 238 239 241 247 251 254 254 245 244 251 256 261 259 256 256 256 257 261 264 269 267 263 275 264 196 199 221 210 210 212 213 216 222 228 231 229 228 241 248 246 239 228 221 220 220 219 219 222 225 227 227 225 223 221 222 222 214 201 225 252 250 248 245 241 238 238 240 237 234 238 242 246 250 251 251 248 245
331 334 332 295 280 268 249 240 240 241 241 243 245 244 247 252 256 258 253 249 249 249 254 257 257 263 270 271 266 268 274 271 268 273 267 237 239 247 226 212 215 218 218 218 223 228 227 226 233 240 240 231 229 232 229 225 223 220 220 221 221 219 215 211 219 220 221 224 220 212 252 257 254 250 246 243 240 241 240 237 243 246 242 241 245 248 247 245
328 332 330 309 300 283 252 240 238 238 238 241 244 241 242 247 253 257 250 242 241 242 247 254 258 263 268 270 266 266 270 271 269 271 261 235 240 245 238 237 245 237 230 227 221 220 224 227 230 235 238 237 240 245 240 233 231 228 226 226 225 223 216 209 214 217 216 223 230 229 250 260 257 254 252 245 239 238 238 237 243 250 245 242 248 254 253 249
324 329 329 319 321 308 263 239 227 223 228 236 236 232 234 233 232 238 239 238 239 242 245 245 245 251 254 259 264 266 271 273 270 265 247 221 231 246 248 255 266 260 252 252 227 214 219 226 231 237 242 243 245 246 241 238 237 233 232 230 228 226 224 224 229 227 221 222 224 226 246 255 257 257 252 248 247 243 239 236 237 244 248 250 255 258 257 254
324 327 323 323 334 321 275 259 265 257 261 263 240 230 232 229 228 234 235 237 247 253 252 249 246 248 253 260 266 273 279 275 261 253 246 231 232 244 251 256 264 264 262 275 245 224 226 229 229 237 243 242 242 241 236 231 230 230 231 230 230 229 227 229 231 231 232 229 222 220 237 244 254 257 250 248 251 244 239 239 238 241 248 252 255 254 253 256
326 327 318 326 341 321 261 286 328 316 310 294 263 252 244 231 229 236 235 236 246 252 252 253 250 252 269 274 271 273 279 276 266 259 254 247 241 243 250 252 255 253 247 294 275 261 266 256 232 229 235 231 233 235 231 228 226 228 229 228 229 229 226 226 226 224 225 227 223 220 226 234 236 246 250 248 244 237 237 241 240 241 246 249 254 255 250 252
327 328 320 328 347 324 221 299 315 316 328 313 287 289 281 247 235 238 239 238 242 245 248 256 263 267 280 283 274 272 275 275 275 273 269 267 261 257 257 256 256 253 247 272 281 275 285 278 248 243 252 253 253 247 239 236 231 228 228 227 226 226 226 225 224 223 222 222 226 227 227 228 218 227 251 252 244 242 247 250 249 246 245 244 250 255 250 249
324 329 326 330 346 356 270 313 298 297 324 325 312 309 308 290 265 256 248 241 243 247 248 254 269 274 279 287 281 275 275 275 275 277 281 280 274 269 268 266 269 270 265 274 288 285 285 279 260 254 255 256 260 252 241 241 239 233 230 228 227 227 225 224 223 226 227 224 230 234 232 232 229 231 246 249 246 250 254 257 257 253 249 247 246 251 252 252
319 323 327 324 324 318 314 316 307 306 318 325 322 318 313 308 293 278 269 255 242 246 254 256 260 263 272 290 292 282 280 281 281 281 284 284 279 275 273 271 272 276 275 275 282 287 288 283 273 269 262 254 255 252 242 241 243 241 236 231 230 229 228 227 226 228 229 227 233 238 237 237 239 241 244 245 249 255 255 254 253 251 249 248 246 249 253 255
317 317 319 311 305 313 319 318 314 313 322 330 325 320 316 304 284 277 280 275 258 248 261 268 263 262 267 278 285 284 286 289 289 290 289 288 286 283 282 281 276 271 273 271 268 280 291 285 277 283 278 264 256 255 250 245 244 243 241 236 233 232 233 233 231 230 231 232 236 241 242 242 243 246 247 246 246 247 247 247 248 250 253 252 250 251 250 248
317 313 312 306 304 314 318 315 314 314 326 338 329 319 314 299 287 274 268 273 271 262 264 270 266 265 268 272 278 282 288 291 288 288 291 292 290 287 288 288 282 276 275 272 264 272 289 291 289 298 298 282 263 256 251 246 243 241 240 238 235 234 235 236 235 232 231 232 235 240 242 244 246 251 252 249 241 235 238 248 252 253 254 250 251 254 245 236
314 311 308 304 306 317 316 310 314 318 325 331 321 315 310 296 300 291 262 252 262 265 267 269 267 265 265 267 274 281 288 288 281 281 286 288 287 286 284 284 285 285 282 277 270 269 284 296 297 311 318 299 263 256 254 245 244 241 238 235 231 229 231 234 235 234 233 233 233 235 238 242 247 251 254 251 241 234 238 251 255 250 240 236 245 258 247 234
309 306 302 299 301 308 308 306 313 319 322 324 319 315 303 286 291 298 284 252 239 248 261 266 268 269 265 262 267 276 279 276 276 279 282 283 285 285 283 282 285 287 284 282 278 268 278 297 298 318 325 298 254 296 300 271 255 243 235 232 229 227 229 232 234 235 236 236 235 235 239 244 247 250 253 253 246 238 238 247 254 250 242 245 253 261 257 239